Location: Nashville
(36.1660°N, 86.7840°W)
Time: 04:34:44
(UTC-06:00)

Transit 4A - All Passes

Search period start: 19 January 2022 00:00
Search period end: 29 January 2022 00:00
Orbit: 864 x 981 km, 66.8° (Epoch: 18 January)

Date Brightness Start Highest point End Pass type
(mag) Time Alt. Az. Time Alt. Az. Time Alt. Az.
19 Jan - 06:54:12 10° SSE 06:58:32 21° ESE 07:02:58 10° ENE daylight
19 Jan - 08:38:35 10° SW 08:44:23 53° WNW 08:50:25 10° NNE daylight
19 Jan - 15:58:45 10° N 16:03:06 19° NE 16:07:26 10° E daylight
19 Jan - 17:43:46 10° NNW 17:50:11 81° WSW 17:56:34 10° SSE visible
19 Jan - 19:34:51 10° W 19:35:33 10° W 19:36:15 10° WSW visible
20 Jan - 07:02:21 10° S 07:07:35 33° ESE 07:12:58 10° NE daylight
20 Jan - 08:48:22 10° WSW 08:53:49 36° NW 08:59:28 10° N daylight
20 Jan - 16:07:28 10° N 16:12:44 26° NE 16:17:59 10° ESE daylight
20 Jan - 17:53:11 10° NW 17:59:25 54° WSW 18:05:35 10° S visible
21 Jan - 07:10:58 10° S 07:16:42 52° ESE 07:22:37 10° NE daylight
21 Jan - 08:58:29 10° WSW 09:03:21 25° NW 09:08:22 10° N daylight
21 Jan - 16:16:22 10° NNW 16:22:15 37° NE 16:28:07 10° ESE daylight
21 Jan - 18:02:49 10° NW 18:08:33 35° WSW 18:14:14 10° S visible
22 Jan - 07:19:57 10° SSW 07:25:54 80° ESE 07:32:04 10° NNE daylight
22 Jan - 09:09:03 10° W 09:13:00 18° NW 09:17:02 10° N daylight
22 Jan - 14:43:01 10° NNE 14:43:51 10° NE 14:44:42 10° NE daylight
22 Jan - 16:25:25 10° NNW 16:31:42 54° ENE 16:37:56 10° SE daylight
22 Jan - 18:12:45 10° NW 18:17:37 23° WSW 18:22:28 10° SSW visible
23 Jan - 05:46:11 10° SE 05:49:34 16° ESE 05:53:01 10° ENE visible
23 Jan - 07:29:15 10° SW 07:35:11 69° WNW 07:41:21 10° NNE daylight
23 Jan - 09:20:20 10° WNW 09:22:44 12° NW 09:25:10 10° NNW daylight
23 Jan - 14:50:11 10° N 14:53:40 15° NE 14:57:09 10° ENE daylight
23 Jan - 16:34:36 10° NNW 16:41:03 80° ENE 16:47:26 10° SSE daylight
23 Jan - 18:23:20 10° WNW 18:26:38 15° WSW 18:29:54 10° SW visible
24 Jan - 05:53:50 10° SSE 05:58:34 25° ESE 06:03:25 10° NE visible
24 Jan - 07:38:50 10° SW 07:44:33 46° WNW 07:50:30 10° NNE daylight
24 Jan - 14:58:39 10° N 15:03:22 21° NE 15:08:04 10° E daylight
24 Jan - 16:43:56 10° NNW 16:50:19 71° WSW 16:56:39 10° SSE daylight
25 Jan - 06:02:10 10° S 06:07:38 39° ESE 06:13:16 10° NE visible
25 Jan - 07:48:44 10° WSW 07:54:01 32° NW 07:59:30 10° N daylight
25 Jan - 15:07:26 10° N 15:12:58 30° NE 15:18:28 10° ESE daylight
25 Jan - 16:53:25 10° NW 16:59:31 46° WSW 17:05:32 10° S daylight
26 Jan - 06:10:56 10° S 06:16:47 61° ESE 06:22:51 10° NE visible
26 Jan - 07:58:59 10° W 08:03:36 22° NW 08:08:19 10° N daylight
26 Jan - 15:16:24 10° NNW 15:22:28 42° ENE 15:28:29 10° SE daylight
26 Jan - 17:03:09 10° NW 17:08:37 31° WSW 17:14:04 10° SSW daylight
27 Jan - 04:39:02 10° ESE 04:40:38 11° E 04:42:15 10° E visible
27 Jan - 06:20:01 10° SSW 06:26:00 89° WNW 06:32:13 10° NNE visible
27 Jan - 08:09:44 10° W 08:13:16 16° NW 08:16:52 10° N daylight
27 Jan - 13:41:59 10° NNE 13:44:11 12° NE 13:46:24 10° ENE daylight
27 Jan - 15:25:30 10° NNW 15:31:52 62° ENE 15:38:11 10° SE daylight
27 Jan - 17:13:14 10° WNW 17:17:40 20° WSW 17:22:04 10° SSW daylight
28 Jan - 04:45:36 10° SE 04:49:35 19° ESE 04:53:39 10° ENE visible
28 Jan - 06:29:25 10° SW 06:35:19 60° WNW 06:41:27 10° NNE daylight
28 Jan - 08:21:36 10° NW 08:23:03 11° NW 08:24:32 10° NNW daylight
28 Jan - 13:49:58 10° N 13:53:58 17° NE 13:57:56 10° E daylight
28 Jan - 15:34:44 10° NNW 15:41:11 90° WSW 15:47:35 10° SSE daylight
28 Jan - 17:24:20 10° W 17:26:38 12° W 17:28:56 10° WSW daylight
